CZ-6A DEB, 60885

Orbit data source: Space-Track

CZ-6A DEB, 60885 is space debris in LEO originally from a launch on Tue, 06 Aug 2024 UTC launched from the Taiyaun Space Center, China (TSC). Debris objects in space refer to the collection of defunct objects orbiting the Earth. Examples of debris include non-operational satellites, rocket bodies, and fragments generated from explosions, collisions, or faulty payload assembly.

Loading next visibility...
Identifier
60885, 2024-140KQ
Orbit
LEO
Country
Flag of CNCN / PRC
Related business
Manufacturer
SAST
Mission
Spacecraft
Bus & Motor
Unknown
Mass
Unknown
Launch date (UTC)
2024-08-06 (2 years ago)
Launch vehicle
Unknown
Launch site
Taiyaun Space Center, China (TSC)
Object type
Payload
Rocket body
Debris
Shape & HBR
Unknown shape, 0.2 m
Radar Cross Section
Medium (>0.1 m² and <1 m²)

Expand to show TLE details & history
Last TLE update: 14 hours ago

TLE from 14 hours ago
0 CZ-6A DEB
1 60885U 24140KQ  26171.25571333  .00000688  00000-0  23839-3 0  9994
2 60885  88.9737 270.3415 0037215 235.0678 124.7022 14.34262699 96056
Epoch: 2026-06-20T06:08Z
TLE epoch observation values (Epoch: 2026-06-20T06:08:13.631Z)
Latitude
-0.00005°
Longitude
-90.18825°
Altitude
795.822 km
Speed
7.448 km/s
True Right ascension
18h 01m 21s
True Declination
0° 00' 00"
Sunlit
Object was in full shadow at epoch
Visualization orbit readout
Latitude
Unknown
Longitude
Unknown
Altitude
Unknown
Speed
Unknown
Apparent Right ascension
Unknown
Apparent Declination
Unknown
Sunlit
N/A
Visualization observer readout
Local Sidereal Time
07:24:08
Azimuth
Unknown
Elevation
Unknown
Doppler factor
Unknown
Orbital elements
Apogee altitude
801.067 km
Perigee altitude
747.83 km
Semi-major axis
7,152.586 km
Eccentricity
0.00372
Inclination
88.9737°
RAAN
270.3415°
Arg. of periapsis
235.0678°
True anomaly
125.05187°
Mean anomaly
124.7022°
Eccentric anomaly
124.87713°
Mean motion
3.58797 °/min
Orbital period
100.34 mins
BSTAR
0.00023839
Loading maneuver chart data...
Computing Atmospheric mass density...
Loading historical data...
Loading historical data...
Loading historical data...
Loading historical data...
Loading historical data...
Loading historical data...
Loading historical data...

Documentation

Showing up to 5 results
|